Location: Unspecified
(51.5147°N, 7.4673°E)
Time: 05:44:02
(UTC+01:00)

Transit 4A - Pass Details

Date: 25 February 2026
Orbit: 863 x 978 km, 66.8° (Epoch: 14 March)

Event Time Altitude Azimuth Distance (km) Brightness Sun altitude
Exits shadow 04:20:11 45° 335° (NNW) 1,227 8.4 -28.9°
Drops below altitude 10° 04:25:32 10° 33° (NNE) 2,643 10.9 -28.1°
Sets 04:28:14 0° 40° (NE) 3,607 11.9 -27.7°
